TimePDT,TemperatureF,Dew PointF,Humidity,Sea Level PressureIn,VisibilityMPH,Wind Direction,Wind SpeedMPH,Gust SpeedMPH,PrecipitationIn,Events,Conditions,WindDirDegrees,DateUTC
12:56 AM,66.0,37.9,36,29.71,10.0,West,9.2,-,N/A,,Clear,260,2013-05-17 07:56:00
1:56 AM,64.9,37.9,37,29.70,10.0,SSW,8.1,-,N/A,,Clear,200,2013-05-17 08:56:00
2:56 AM,66.0,39.0,37,29.70,10.0,WSW,10.4,-,N/A,,Clear,250,2013-05-17 09:56:00
3:56 AM,66.0,37.9,36,29.70,10.0,SW,6.9,-,N/A,,Clear,230,2013-05-17 10:56:00
4:56 AM,64.0,37.9,38,29.71,10.0,SSW,8.1,-,N/A,,Mostly Cloudy,210,2013-05-17 11:56:00
5:56 AM,63.0,37.0,38,29.73,10.0,SW,5.8,-,N/A,,Mostly Cloudy,230,2013-05-17 12:56:00
6:56 AM,64.0,37.9,38,29.76,10.0,South,4.6,-,N/A,,Mostly Cloudy,170,2013-05-17 13:56:00
7:56 AM,69.1,37.0,31,29.77,10.0,Calm,Calm,-,N/A,,Mostly Cloudy,0,2013-05-17 14:56:00
8:56 AM,73.0,37.0,27,29.78,10.0,NNE,3.5,-,N/A,,Mostly Cloudy,30,2013-05-17 15:56:00
9:56 AM,75.9,37.0,24,29.79,10.0,ENE,5.8,-,N/A,,Scattered Clouds,60,2013-05-17 16:56:00
10:56 AM,77.0,35.1,22,29.79,10.0,West,4.6,-,N/A,,Scattered Clouds,270,2013-05-17 17:56:00
11:56 AM,79.0,37.0,22,29.78,10.0,Variable,5.8,-,N/A,,Partly Cloudy,0,2013-05-17 18:56:00
12:56 PM,-9999,-9999,N/A,29.81,10.0,Variable,6.9,-,N/A,,Partly Cloudy,0,2013-05-17 19:56:00
1:56 PM,82.0,36.0,19,29.75,10.0,Variable,5.8,-,N/A,,Partly Cloudy,0,2013-05-17 20:56:00
2:56 PM,84.0,37.9,19,29.72,10.0,South,15.0,24.2,N/A,,Partly Cloudy,170,2013-05-17 21:56:00
3:56 PM,82.9,37.9,20,29.71,10.0,SW,15.0,20.7,N/A,,Partly Cloudy,230,2013-05-17 22:56:00
4:56 PM,82.0,37.0,20,29.70,10.0,SW,10.4,18.4,N/A,,Partly Cloudy,220,2013-05-17 23:56:00
5:56 PM,80.1,37.9,22,29.70,10.0,West,19.6,24.2,N/A,,Partly Cloudy,260,2013-05-18 00:56:00
6:56 PM,78.1,36.0,22,29.73,10.0,WSW,15.0,-,N/A,,Partly Cloudy,250,2013-05-18 01:56:00
7:56 PM,73.0,37.0,27,29.73,10.0,WSW,12.7,-,N/A,,Clear,250,2013-05-18 02:56:00
8:56 PM,70.0,35.1,28,29.75,10.0,SSW,6.9,-,N/A,,Clear,200,2013-05-18 03:56:00
9:56 PM,71.1,34.0,26,29.77,10.0,SW,8.1,-,N/A,,Clear,220,2013-05-18 04:56:00
10:56 PM,70.0,33.1,26,29.79,10.0,SW,6.9,-,N/A,,Clear,220,2013-05-18 05:56:00
11:56 PM,68.0,34.0,28,29.80,10.0,Calm,Calm,-,N/A,,Clear,0,2013-05-18 06:56:00